| time (UTC) | temp F | wind direction | speed knots | gust knots | rain 1hr in | rain 24hr in | rain mn in | humidity % | barometer mb |
| 20260906200746 | 90 | 93 | 1.7 | 3.5 | 0.00 | 0.00 | 0.00 | 46 | 1014.7 |
| 20260906200241 | 91 | 96 | 2.6 | 2.6 | 0.00 | 0.00 | 0.00 | 47 | 1014.8 |
| 20260906195737 | 91 | 112 | 2.6 | 5.2 | 0.00 | 0.00 | 0.00 | 46 | 1014.9 |
| 20260906195233 | 91 | 120 | 0.0 | 1.7 | 0.00 | 0.00 | 0.00 | 47 | 1015.0 |
| 20260906194729 | 91 | 115 | 1.7 | 5.2 | 0.00 | 0.00 | 0.00 | 48 | 1015.1 |
| 20260906194224 | 91 | 112 | 0.9 | 7.0 | 0.00 | 0.00 | 0.00 | 48 | 1015.3 |
| 20260906193719 | 90 | 121 | 1.7 | 2.6 | 0.00 | 0.00 | 0.00 | 48 | 1015.0 |
| 20260906193214 | 91 | 107 | 0.9 | 5.2 | 0.00 | 0.00 | 0.00 | 47 | 1015.2 |
| 20260906192710 | 90 | 141 | 0.0 | 5.2 | 0.00 | 0.00 | 0.00 | 49 | 1015.3 |
| 20260906192209 | 90 | 119 | 0.9 | 5.2 | 0.00 | 0.00 | 0.00 | 50 | 1015.6 |
| 20260906191704 | 89 | 101 | 0.0 | 2.6 | 0.00 | 0.00 | 0.00 | 50 | 1015.6 |
| 20260906191203 | 89 | 132 | 0.9 | 5.2 | 0.00 | 0.00 | 0.00 | 49 | 1015.5 |
| 20260906190658 | 89 | 141 | 0.0 | 3.5 | 0.00 | 0.00 | 0.00 | 50 | 1015.9 |
| 20260906190153 | 89 | 181 | 0.0 | 6.1 | 0.00 | 0.00 | 0.00 | 49 | 1016.0 |
| 20260906185651 | 89 | 91 | 0.0 | 1.7 | 0.00 | 0.00 | 0.00 | 50 | 1016.1 |
| 20260906185151 | 89 | 163 | 0.9 | 5.2 | 0.00 | 0.00 | 0.00 | 50 | 1016.2 |
| 20260906184645 | 89 | 90 | 0.9 | 2.6 | 0.00 | 0.00 | 0.00 | 49 | 1016.3 |
| 20260906184142 | 89 | 147 | 0.0 | 6.1 | 0.00 | 0.00 | 0.00 | 48 | 1016.6 |
| 20260906183637 | 89 | 102 | 0.9 | 2.6 | 0.00 | 0.00 | 0.00 | 48 | 1016.5 |
| 20260906183133 | 89 | 129 | 0.9 | 2.6 | 0.00 | 0.00 | 0.00 | 49 | 1016.7 |
| 20260906182632 | 89 | 104 | 2.6 | 5.2 | 0.00 | 0.00 | 0.00 | 48 | 1016.9 |
| 20260906182129 | 89 | 94 | 0.9 | 5.2 | 0.00 | 0.00 | 0.00 | 48 | 1016.6 |
| 20260906181624 | 91 | 141 | 0.0 | 5.2 | 0.00 | 0.00 | 0.00 | 48 | 1016.9 |
| 20260906181120 | 91 | 97 | 1.7 | 7.0 | 0.00 | 0.00 | 0.00 | 48 | 1017.2 |
| 20260906180615 | 90 | 128 | 0.9 | 1.7 | 0.00 | 0.00 | 0.00 | 48 | 1017.2 |
| 20260906180114 | 90 | 133 | 0.0 | 1.7 | 0.00 | 0.00 | 0.00 | 49 | 1017.3 |
| 20260906175613 | 91 | 92 | 0.0 | 3.5 | 0.00 | 0.00 | 0.00 | 48 | 1017.5 |
| 20260906175108 | 91 | 132 | 1.7 | 3.5 | 0.00 | 0.00 | 0.00 | 45 | 1017.6 |
| 20260906174606 | 89 | 76 | 2.6 | 5.2 | 0.00 | 0.00 | 0.00 | 49 | 1017.9 |
| 20260906174101 | 89 | 36 | 3.5 | 7.0 | 0.00 | 0.00 | 0.00 | 49 | 1017.9 |
| 20260906173556 | 89 | 124 | 0.9 | 7.0 | 0.00 | 0.00 | 0.00 | 50 | 1018.0 |
| 20260906173053 | 90 | 120 | 0.9 | 7.0 | 0.00 | 0.00 | 0.00 | 51 | 1017.9 |
| 20260906172552 | 89 | 161 | 0.9 | 2.6 | 0.00 | 0.00 | 0.00 | 51 | 1018.2 |
| 20260906172048 | 88 | 149 | 0.0 | 1.7 | 0.00 | 0.00 | 0.00 | 53 | 1018.0 |
| 20260906171547 | 88 | 171 | 0.0 | 5.2 | 0.00 | 0.00 | 0.00 | 53 | 1018.2 |
| 20260906171043 | 88 | 176 | 0.9 | 3.5 | 0.00 | 0.00 | 0.00 | 52 | 1018.1 |
| 20260906170539 | 87 | 136 | 0.9 | 2.6 | 0.00 | 0.00 | 0.00 | 54 | 1018.3 |
| 20260906170038 | 86 | 154 | 0.0 | 5.2 | 0.00 | 0.00 | 0.00 | 56 | 1018.2 |
| 20260906165534 | 86 | 67 | 3.5 | 6.1 | 0.00 | 0.00 | 0.00 | 56 | 1018.4 |
| 20260906165029 | 86 | 172 | 0.9 | 6.1 | 0.00 | 0.00 | 0.00 | 57 | 1018.5 |
| 20260906164529 | 85 | 140 | 1.7 | 3.5 | 0.00 | 0.00 | 0.00 | 58 | 1018.5 |
| 20260906164025 | 85 | 34 | 0.9 | 7.0 | 0.00 | 0.00 | 0.00 | 59 | 1018.5 |
| 20260906163520 | 84 | 22 | 2.6 | 7.0 | 0.00 | 0.00 | 0.00 | 61 | 1018.4 |
| 20260906163015 | 84 | 60 | 6.1 | 7.8 | 0.00 | 0.00 | 0.00 | 61 | 1018.7 |
| 20260906162513 | 83 | 141 | 3.5 | 8.7 | 0.00 | 0.00 | 0.00 | 61 | 1018.7 |
| 20260906162008 | 83 | 107 | 1.7 | 8.7 | 0.00 | 0.00 | 0.00 | 63 | 1018.9 |
| 20260906161503 | 83 | 84 | 3.5 | 5.2 | 0.00 | 0.00 | 0.00 | 62 | 1018.9 |
| 20260906161001 | 83 | 174 | 0.9 | 5.2 | 0.00 | 0.00 | 0.00 | 62 | 1019.0 |
| 20260906160500 | 84 | 349 | 0.9 | 3.5 | 0.00 | 0.00 | 0.00 | 61 | 1019.0 |
| 20260906155958 | 83 | 123 | 1.7 | 2.6 | 0.00 | 0.00 | 0.00 | 62 | 1018.7 |
| 20260906155457 | 82 | 358 | 1.7 | 7.8 | 0.00 | 0.00 | 0.00 | 65 | 1018.7 |
| 20260906154953 | 81 | 317 | 3.5 | 6.1 | 0.00 | 0.00 | 0.00 | 65 | 1018.7 |
| 20260906154449 | 82 | 88 | 4.3 | 6.1 | 0.00 | 0.00 | 0.00 | 64 | 1018.6 |
| 20260906153946 | 83 | 269 | 5.2 | 8.7 | 0.00 | 0.00 | 0.00 | 62 | 1018.5 |
| 20260906153446 | 82 | 126 | 0.0 | 6.1 | 0.00 | 0.00 | 0.00 | 64 | 1018.6 |
| 20260906152941 | 82 | 48 | 3.5 | 9.6 | 0.00 | 0.00 | 0.00 | 63 | 1018.6 |
| 20260906152441 | 82 | 6 | 5.2 | 9.6 | 0.00 | 0.00 | 0.00 | 63 | 1018.6 |
| 20260906151940 | 82 | 43 | 2.6 | 8.7 | 0.00 | 0.00 | 0.00 | 64 | 1018.5 |
| 20260906151436 | 81 | 55 | 5.2 | 9.6 | 0.00 | 0.00 | 0.00 | 65 | 1018.5 |
| 20260906150932 | 81 | 12 | 6.1 | 9.6 | 0.00 | 0.00 | 0.00 | 64 | 1018.5 |
| 20260906150426 | 80 | 21 | 0.9 | 6.1 | 0.00 | 0.00 | 0.00 | 65 | 1018.4 |
| 20260906145921 | 80 | 96 | 3.5 | 9.6 | 0.00 | 0.00 | 0.00 | 66 | 1018.2 |
| 20260906145420 | 79 | 17 | 3.5 | 7.0 | 0.00 | 0.00 | 0.00 | 67 | 1018.3 |
| 20260906144915 | 79 | 111 | 2.6 | 6.1 | 0.00 | 0.00 | 0.00 | 67 | 1018.2 |
| 20260906144415 | 79 | 0 | 3.5 | 7.0 | 0.00 | 0.00 | 0.00 | 67 | 1018.4 |
| 20260906143910 | 78 | 106 | 1.7 | 5.2 | 0.00 | 0.00 | 0.00 | 68 | 1018.4 |
| 20260906143406 | 77 | 101 | 0.9 | 3.5 | 0.00 | 0.00 | 0.00 | 70 | 1018.5 |
| 20260906142902 | 77 | 156 | 0.9 | 6.1 | 0.00 | 0.00 | 0.00 | 71 | 1018.6 |
| 20260906142401 | 77 | 0 | 3.5 | 5.2 | 0.00 | 0.00 | 0.00 | 71 | 1018.4 |
| 20260906141856 | 76 | 22 | 3.5 | 5.2 | 0.00 | 0.00 | 0.00 | 72 | 1018.5 |
| 20260906141356 | 76 | 162 | 0.9 | 3.5 | 0.00 | 0.00 | 0.00 | 72 | 1018.5 |
| 20260906140856 | 76 | 184 | 0.0 | 5.2 | 0.00 | 0.00 | 0.00 | 72 | 1018.5 |
| 20260906140351 | 75 | 20 | 1.7 | 5.2 | 0.00 | 0.00 | 0.00 | 73 | 1018.4 |
| 20260906135849 | 75 | 131 | 1.7 | 5.2 | 0.00 | 0.00 | 0.00 | 72 | 1018.5 |
| 20260906135349 | 75 | 141 | 0.9 | 12.2 | 0.00 | 0.00 | 0.00 | 73 | 1018.5 |
| 20260906134844 | 76 | 285 | 4.3 | 9.6 | 0.00 | 0.00 | 0.00 | 71 | 1018.3 |
| 20260906134339 | 76 | 194 | 0.9 | 0.9 | 0.00 | 0.00 | 0.00 | 70 | 1018.0 |
| 20260906133834 | 76 | 166 | 0.0 | 0.0 | 0.00 | 0.00 | 0.00 | 68 | 1017.7 |
| 20260906133330 | 75 | 166 | 0.0 | 0.9 | 0.00 | 0.00 | 0.00 | 70 | 1017.5 |
| 20260906132825 | 75 | 167 | 0.9 | 1.7 | 0.00 | 0.00 | 0.00 | 70 | 1017.3 |
| 20260906132321 | 75 | 175 | 0.0 | 0.0 | 0.00 | 0.00 | 0.00 | 70 | 1017.4 |
| 20260906131816 | 76 | 184 | 0.0 | 0.0 | 0.00 | 0.00 | 0.00 | 69 | 1017.4 |
| 20260906131311 | 75 | 181 | 0.9 | 1.7 | 0.00 | 0.00 | 0.00 | 68 | 1017.0 |
| 20260906130808 | 75 | 166 | 0.9 | 2.6 | 0.00 | 0.00 | 0.00 | 69 | 1017.0 |
| 20260906130306 | 75 | 160 | 1.7 | 1.7 | 0.00 | 0.00 | 0.00 | 70 | 1017.0 |
| 20260906125805 | 75 | 169 | 0.0 | 0.9 | 0.00 | 0.00 | 0.00 | 70 | 1016.8 |
| 20260906125306 | 74 | 155 | 0.0 | 2.6 | 0.00 | 0.00 | 0.00 | 71 | 1016.6 |
| 20260906124758 | 74 | 162 | 0.9 | 0.9 | 0.00 | 0.00 | 0.00 | 71 | 1016.7 |
| 20260906124254 | 74 | 152 | 0.0 | 1.7 | 0.00 | 0.00 | 0.00 | 71 | 1016.7 |
| 20260906123753 | 74 | 165 | 0.0 | 0.9 | 0.00 | 0.00 | 0.00 | 71 | 1016.6 |
| 20260906123248 | 74 | 165 | 0.0 | 0.0 | 0.00 | 0.00 | 0.00 | 72 | 1016.3 |
| 20260906122747 | 74 | 150 | 0.0 | 1.7 | 0.00 | 0.00 | 0.00 | 71 | 1016.3 |
| 20260906122243 | 74 | 174 | 0.9 | 2.6 | 0.00 | 0.00 | 0.00 | 71 | 1016.2 |
| 20260906121739 | 74 | 179 | 2.6 | 3.5 | 0.00 | 0.00 | 0.00 | 71 | 1016.1 |
| 20260906121235 | 74 | 157 | 0.0 | 1.7 | 0.00 | 0.00 | 0.00 | 72 | 1016.1 |
| 20260906120731 | 74 | 169 | 0.9 | 1.7 | 0.00 | 0.00 | 0.00 | 71 | 1016.1 |
| 20260906120228 | 74 | 186 | 1.7 | 3.5 | 0.00 | 0.00 | 0.00 | 71 | 1015.9 |
| 20260906115723 | 74 | 165 | 0.9 | 2.6 | 0.00 | 0.00 | 0.00 | 70 | 1015.8 |
| 20260906115218 | 74 | 155 | 2.6 | 5.2 | 0.00 | 0.00 | 0.00 | 70 | 1015.7 |
| 20260906114717 | 74 | 174 | 6.1 | 7.8 | 0.00 | 0.00 | 0.00 | 70 | 1015.6 |
| 20260906114212 | 74 | 162 | 3.5 | 5.2 | 0.00 | 0.00 | 0.00 | 71 | 1015.6 |
| 20260906113707 | 74 | 166 | 1.7 | 2.6 | 0.00 | 0.00 | 0.00 | 71 | 1015.5 |
| 20260906113207 | 74 | 244 | 1.7 | 3.5 | 0.00 | 0.00 | 0.00 | 71 | 1015.3 |
| 20260906112706 | 74 | 154 | 2.6 | 3.5 | 0.00 | 0.00 | 0.00 | 71 | 1015.3 |
| 20260906112204 | 75 | 184 | 3.5 | 6.1 | 0.00 | 0.00 | 0.00 | 70 | 1015.3 |
| 20260906111703 | 75 | 173 | 3.5 | 6.1 | 0.00 | 0.00 | 0.00 | 70 | 1015.1 |
| 20260906111157 | 75 | 172 | 2.6 | 7.0 | 0.00 | 0.00 | 0.00 | 69 | 1015.5 |
| 20260906110653 | 76 | 166 | 3.5 | 6.1 | 0.00 | 0.00 | 0.00 | 68 | 1015.3 |
| 20260906110148 | 76 | 159 | 6.1 | 8.7 | 0.00 | 0.00 | 0.00 | 67 | 1015.2 |
| 20260906105647 | 76 | 132 | 2.6 | 7.0 | 0.00 | 0.00 | 0.00 | 67 | 1015.2 |
| 20260906105144 | 75 | 161 | 2.6 | 5.2 | 0.00 | 0.00 | 0.00 | 68 | 1015.1 |
| 20260906104643 | 75 | 163 | 3.5 | 6.1 | 0.00 | 0.00 | 0.00 | 68 | 1014.9 |
| 20260906104143 | 75 | 176 | 3.5 | 6.1 | 0.00 | 0.00 | 0.00 | 68 | 1015.2 |
| 20260906103641 | 75 | 205 | 3.5 | 3.5 | 0.00 | 0.00 | 0.00 | 68 | 1015.1 |
| 20260906103136 | 75 | 152 | 3.5 | 5.2 | 0.00 | 0.00 | 0.00 | 69 | 1015.2 |
| 20260906102631 | 75 | 137 | 3.5 | 6.1 | 0.00 | 0.00 | 0.00 | 69 | 1014.9 |
| 20260906102126 | 75 | 169 | 3.5 | 3.5 | 0.00 | 0.00 | 0.00 | 70 | 1015.3 |
| 20260906101625 | 75 | 185 | 2.6 | 3.5 | 0.00 | 0.00 | 0.00 | 70 | 1015.5 |
| 20260906101125 | 75 | 160 | 1.7 | 2.6 | 0.00 | 0.00 | 0.00 | 69 | 1015.5 |
| 20260906100621 | 76 | 168 | 0.0 | 0.9 | 0.00 | 0.00 | 0.00 | 68 | 1015.1 |
| 20260906100116 | 75 | 155 | 0.9 | 2.6 | 0.00 | 0.00 | 0.00 | 67 | 1015.3 |
| 20260906095616 | 75 | 162 | 3.5 | 6.1 | 0.00 | 0.00 | 0.00 | 69 | 1015.3 |
| 20260906095111 | 75 | 164 | 3.5 | 5.2 | 0.00 | 0.00 | 0.00 | 69 | 1015.3 |
| 20260906094610 | 75 | 197 | 2.6 | 3.5 | 0.00 | 0.00 | 0.00 | 68 | 1015.5 |
| 20260906094106 | 75 | 177 | 3.5 | 7.0 | 0.00 | 0.00 | 0.00 | 67 | 1015.5 |
| 20260906093602 | 75 | 168 | 4.3 | 6.1 | 0.00 | 0.00 | 0.00 | 68 | 1015.1 |
| 20260906093057 | 75 | 165 | 3.5 | 5.2 | 0.00 | 0.00 | 0.00 | 69 | 1015.2 |
| 20260906092552 | 75 | 164 | 0.0 | 1.7 | 0.00 | 0.00 | 0.00 | 68 | 1015.2 |
| 20260906092047 | 75 | 146 | 1.7 | 3.5 | 0.00 | 0.00 | 0.00 | 68 | 1015.2 |
| 20260906091543 | 75 | 161 | 0.9 | 1.7 | 0.00 | 0.00 | 0.00 | 68 | 1015.2 |
| 20260906091039 | 75 | 174 | 1.7 | 5.2 | 0.00 | 0.00 | 0.00 | 68 | 1015.0 |
| 20260906090539 | 76 | 150 | 0.0 | 2.6 | 0.00 | 0.00 | 0.00 | 68 | 1015.0 |
| 20260906090040 | 76 | 144 | 1.7 | 3.5 | 0.00 | 0.00 | 0.00 | 68 | 1015.1 |
| 20260906085538 | 76 | 172 | 2.6 | 2.6 | 0.00 | 0.00 | 0.00 | 68 | 1015.1 |
| 20260906085038 | 76 | 209 | 1.7 | 3.5 | 0.00 | 0.00 | 0.00 | 68 | 1015.2 |
| 20260906084533 | 76 | 160 | 1.7 | 5.2 | 0.00 | 0.00 | 0.00 | 68 | 1015.1 |
| 20260906084031 | 76 | 154 | 0.9 | 2.6 | 0.00 | 0.00 | 0.00 | 68 | 1015.2 |
| 20260906083528 | 76 | 177 | 1.7 | 1.7 | 0.00 | 0.00 | 0.00 | 67 | 1015.1 |
| 20260906083027 | 77 | 150 | 2.6 | 5.2 | 0.00 | 0.00 | 0.00 | 66 | 1015.0 |
| 20260906082522 | 77 | 147 | 1.7 | 7.8 | 0.00 | 0.00 | 0.00 | 66 | 1015.1 |
| 20260906082018 | 77 | 141 | 3.5 | 5.2 | 0.00 | 0.00 | 0.00 | 65 | 1014.9 |
| 20260906081514 | 77 | 131 | 1.7 | 5.2 | 0.00 | 0.00 | 0.00 | 65 | 1014.9 |
| 20260906081009 | 77 | 158 | 3.5 | 6.1 | 0.00 | 0.00 | 0.00 | 65 | 1014.9 |
| 20260906080506 | 77 | 150 | 2.6 | 6.1 | 0.00 | 0.00 | 0.00 | 65 | 1014.8 |
| 20260906080001 | 78 | 133 | 2.6 | 3.5 | 0.00 | 0.00 | 0.00 | 65 | 1015.0 |
| 20260906075455 | 78 | 177 | 1.7 | 7.0 | 0.00 | 0.00 | 0.00 | 64 | 1015.0 |
| 20260906074951 | 79 | 165 | 0.9 | 6.1 | 0.00 | 0.00 | 0.00 | 63 | 1015.0 |
| 20260906074451 | 79 | 162 | 1.7 | 6.1 | 0.00 | 0.00 | 0.00 | 62 | 1014.9 |
| 20260906073949 | 79 | 161 | 6.1 | 7.8 | 0.00 | 0.00 | 0.00 | 61 | 1015.1 |
| 20260906073444 | 79 | 139 | 7.8 | 13.0 | 0.00 | 0.00 | 0.00 | 61 | 1014.9 |
| 20260906072941 | 79 | 147 | 3.5 | 8.7 | 0.00 | 0.00 | 0.00 | 61 | 1015.0 |
| 20260906072435 | 79 | 166 | 1.7 | 8.7 | 0.00 | 0.00 | 0.00 | 61 | 1015.0 |
| 20260906071931 | 79 | 168 | 2.6 | 9.6 | 0.00 | 0.00 | 0.00 | 62 | 1014.9 |
| 20260906071427 | 79 | 139 | 6.1 | 8.7 | 0.00 | 0.00 | 0.00 | 62 | 1015.2 |
| 20260906070923 | 79 | 125 | 3.5 | 7.0 | 0.00 | 0.00 | 0.00 | 63 | 1015.1 |
| 20260906070419 | 78 | 177 | 4.3 | 7.8 | 0.00 | 0.00 | 0.00 | 64 | 1015.1 |
| 20260906065915 | 78 | 174 | 2.6 | 6.1 | 0.00 | 0.00 | 0.00 | 66 | 1015.1 |
| 20260906065408 | 78 | 138 | 3.5 | 5.2 | 0.00 | 0.00 | 0.00 | 66 | 1015.1 |
| 20260906064904 | 77 | 130 | 5.2 | 7.0 | 0.00 | 0.00 | 0.00 | 67 | 1015.2 |
| 20260906064401 | 77 | 116 | 3.5 | 5.2 | 0.00 | 0.00 | 0.00 | 68 | 1014.9 |
| 20260906063900 | 77 | 129 | 6.1 | 8.7 | 0.00 | 0.00 | 0.00 | 69 | 1015.0 |
| 20260906063355 | 77 | 145 | 1.7 | 5.2 | 0.00 | 0.00 | 0.00 | 69 | 1014.9 |
| 20260906062850 | 78 | 138 | 2.6 | 7.8 | 0.00 | 0.00 | 0.00 | 69 | 1014.9 |
| 20260906062350 | 77 | 116 | 1.7 | 3.5 | 0.00 | 0.00 | 0.00 | 70 | 1015.0 |
| 20260906061845 | 78 | 141 | 1.7 | 5.2 | 0.00 | 0.00 | 0.00 | 70 | 1015.0 |
| 20260906061342 | 78 | 135 | 1.7 | 5.2 | 0.00 | 0.00 | 0.00 | 69 | 1014.8 |
| 20260906060836 | 79 | 144 | 2.6 | 3.5 | 0.00 | 0.00 | 0.00 | 67 | 1014.6 |
| 20260906060334 | 80 | 128 | 3.5 | 5.2 | 0.00 | 0.00 | 0.00 | 64 | 1014.7 |
| 20260906055830 | 80 | 177 | 3.5 | 6.1 | 0.00 | 0.00 | 0.00 | 63 | 1014.5 |
| 20260906055325 | 80 | 157 | 3.5 | 5.2 | 0.00 | 0.00 | 0.00 | 64 | 1014.5 |
| 20260906054820 | 80 | 164 | 3.5 | 6.1 | 0.00 | 0.00 | 0.00 | 64 | 1014.4 |
| 20260906054315 | 80 | 138 | 1.7 | 3.5 | 0.00 | 0.00 | 0.00 | 64 | 1014.5 |
| 20260906053812 | 79 | 145 | 1.7 | 2.6 | 0.00 | 0.00 | 0.00 | 65 | 1014.8 |
| 20260906053307 | 79 | 136 | 1.7 | 2.6 | 0.00 | 0.00 | 0.00 | 66 | 1014.6 |
| 20260906052802 | 78 | 128 | 1.7 | 5.2 | 0.00 | 0.00 | 0.00 | 67 | 1014.6 |
| 20260906052258 | 78 | 118 | 1.7 | 3.5 | 0.00 | 0.00 | 0.00 | 68 | 1014.8 |
| 20260906051755 | 78 | 169 | 1.7 | 2.6 | 0.00 | 0.00 | 0.00 | 69 | 1014.8 |
| 20260906051254 | 78 | 167 | 3.5 | 5.2 | 0.00 | 0.00 | 0.00 | 69 | 1014.7 |
| 20260906050750 | 78 | 147 | 1.7 | 2.6 | 0.00 | 0.00 | 0.00 | 69 | 1014.8 |
| 20260906050245 | 78 | 144 | 0.9 | 6.1 | 0.00 | 0.00 | 0.00 | 69 | 1014.9 |
| 20260906045744 | 78 | 141 | 3.5 | 5.2 | 0.00 | 0.01 | 0.01 | 71 | 1014.9 |
| 20260906045239 | 78 | 150 | 0.9 | 1.7 | 0.00 | 0.01 | 0.01 | 71 | 1014.8 |
| 20260906044735 | 79 | 149 | 0.0 | 0.9 | 0.00 | 0.01 | 0.01 | 70 | 1014.8 |
| 20260906044229 | 79 | 152 | 0.0 | 0.9 | 0.00 | 0.01 | 0.01 | 68 | 1014.7 |
| 20260906043726 | 79 | 166 | 1.7 | 2.6 | 0.00 | 0.01 | 0.01 | 68 | 1014.8 |
| 20260906043221 | 79 | 147 | 1.7 | 5.2 | 0.00 | 0.01 | 0.01 | 68 | 1014.9 |
| 20260906042721 | 79 | 104 | 2.6 | 6.1 | 0.00 | 0.01 | 0.01 | 68 | 1015.0 |
| 20260906042220 | 79 | 130 | 1.7 | 3.5 | 0.00 | 0.01 | 0.01 | 68 | 1014.9 |
| 20260906041715 | 79 | 142 | 1.7 | 2.6 | 0.00 | 0.01 | 0.01 | 68 | 1014.9 |
| 20260906041211 | 79 | 159 | 0.9 | 2.6 | 0.00 | 0.01 | 0.01 | 68 | 1015.1 |
| 20260906040706 | 79 | 143 | 1.7 | 3.5 | 0.00 | 0.01 | 0.01 | 68 | 1014.9 |
| 20260906040201 | 80 | 182 | 3.5 | 6.1 | 0.00 | 0.01 | 0.01 | 67 | 1014.9 |
| 20260906035657 | 80 | 145 | 1.7 | 3.5 | 0.00 | 0.01 | 0.01 | 66 | 1014.9 |
| 20260906035153 | 80 | 172 | 1.7 | 5.2 | 0.00 | 0.01 | 0.01 | 67 | 1014.9 |
| 20260906034647 | 79 | 184 | 3.5 | 6.1 | 0.00 | 0.01 | 0.01 | 68 | 1015.0 |
| 20260906034141 | 79 | 162 | 5.2 | 7.0 | 0.00 | 0.01 | 0.01 | 69 | 1015.0 |
| 20260906033637 | 78 | 129 | 2.6 | 7.8 | 0.00 | 0.01 | 0.01 | 70 | 1014.8 |
| 20260906033132 | 78 | 147 | 1.7 | 3.5 | 0.00 | 0.01 | 0.01 | 71 | 1014.7 |
| 20260906032629 | 78 | 151 | 1.7 | 5.2 | 0.00 | 0.01 | 0.01 | 72 | 1014.6 |
| 20260906032129 | 78 | 133 | 1.7 | 7.0 | 0.00 | 0.01 | 0.01 | 72 | 1014.7 |
| 20260906031624 | 78 | 132 | 1.7 | 6.1 | 0.00 | 0.01 | 0.01 | 72 | 1014.7 |
| 20260906031120 | 78 | 152 | 2.6 | 3.5 | 0.00 | 0.01 | 0.01 | 72 | 1014.6 |
| 20260906030619 | 78 | 155 | 1.7 | 3.5 | 0.00 | 0.01 | 0.01 | 72 | 1014.5 |
| 20260906030114 | 78 | 166 | 2.6 | 3.5 | 0.00 | 0.01 | 0.01 | 72 | 1014.7 |
| 20260906025613 | 78 | 142 | 1.7 | 3.5 | 0.00 | 0.01 | 0.01 | 72 | 1014.5 |
| 20260906025112 | 78 | 162 | 1.7 | 2.6 | 0.00 | 0.01 | 0.01 | 73 | 1014.5 |
| 20260906024607 | 78 | 153 | 1.7 | 2.6 | 0.00 | 0.01 | 0.01 | 73 | 1014.4 |
| 20260906024102 | 78 | 155 | 3.5 | 3.5 | 0.00 | 0.01 | 0.01 | 73 | 1014.5 |
| 20260906023558 | 78 | 173 | 1.7 | 3.5 | 0.00 | 0.01 | 0.01 | 73 | 1014.4 |
| 20260906023057 | 78 | 156 | 1.7 | 2.6 | 0.00 | 0.01 | 0.01 | 74 | 1014.4 |
| 20260906022553 | 78 | 172 | 0.0 | 0.9 | 0.00 | 0.01 | 0.01 | 75 | 1014.4 |
| 20260906022048 | 78 | 172 | 0.9 | 1.7 | 0.00 | 0.01 | 0.01 | 74 | 1014.2 |
| 20260906021544 | 78 | 163 | 2.6 | 2.6 | 0.00 | 0.01 | 0.01 | 75 | 1014.3 |
| 20260906021042 | 78 | 148 | 0.9 | 2.6 | 0.00 | 0.01 | 0.01 | 76 | 1014.2 |
| 20260906020543 | 79 | 188 | 0.9 | 1.7 | 0.00 | 0.01 | 0.01 | 75 | 1014.1 |
| 20260906020042 | 80 | 209 | 1.7 | 1.7 | 0.00 | 0.01 | 0.01 | 73 | 1014.1 |
| 20260906015541 | 80 | 155 | 0.9 | 1.7 | 0.00 | 0.01 | 0.01 | 72 | 1014.1 |
| 20260906015035 | 80 | 146 | 1.7 | 3.5 | 0.00 | 0.01 | 0.01 | 71 | 1013.9 |
| 20260906014530 | 80 | 145 | 2.6 | 3.5 | 0.00 | 0.01 | 0.01 | 72 | 1013.7 |
| 20260906014026 | 80 | 141 | 3.5 | 6.1 | 0.00 | 0.01 | 0.01 | 72 | 1013.9 |
| 20260906013521 | 80 | 143 | 0.9 | 2.6 | 0.00 | 0.01 | 0.01 | 72 | 1013.6 |
| 20260906013017 | 80 | 165 | 3.5 | 3.5 | 0.00 | 0.01 | 0.01 | 72 | 1013.7 |
| 20260906012512 | 80 | 160 | 2.6 | 3.5 | 0.00 | 0.01 | 0.01 | 71 | 1013.7 |
| 20260906012011 | 80 | 164 | 2.6 | 2.6 | 0.00 | 0.01 | 0.01 | 70 | 1013.7 |
| 20260906011508 | 81 | 161 | 0.9 | 2.6 | 0.00 | 0.01 | 0.01 | 69 | 1013.5 |
| 20260906011008 | 81 | 158 | 0.9 | 1.7 | 0.00 | 0.01 | 0.01 | 68 | 1013.5 |
| 20260906010503 | 82 | 187 | 1.7 | 2.6 | 0.00 | 0.01 | 0.01 | 67 | 1013.5 |
| 20260906005959 | 82 | 180 | 4.3 | 6.1 | 0.00 | 0.01 | 0.01 | 66 | 1013.5 |
| 20260906005458 | 82 | 138 | 2.6 | 2.6 | 0.00 | 0.01 | 0.01 | 65 | 1013.7 |
| 20260906004957 | 81 | 159 | 0.0 | 0.9 | 0.00 | 0.01 | 0.01 | 66 | 1013.6 |
| 20260906004457 | 82 | 167 | 0.0 | 1.7 | 0.00 | 0.01 | 0.01 | 70 | 1013.7 |
| 20260906003952 | 82 | 177 | 0.9 | 0.9 | 0.00 | 0.01 | 0.01 | 71 | 1013.7 |
| 20260906003447 | 82 | 193 | 0.9 | 1.7 | 0.00 | 0.01 | 0.01 | 69 | 1013.6 |
| 20260906002942 | 82 | 169 | 0.9 | 1.7 | 0.00 | 0.01 | 0.01 | 68 | 1013.4 |
| 20260906002443 | 82 | 180 | 1.7 | 1.7 | 0.00 | 0.01 | 0.01 | 66 | 1013.5 |
| 20260906001937 | 81 | 188 | 1.7 | 3.5 | 0.00 | 0.01 | 0.01 | 66 | 1013.5 |
| 20260906001433 | 80 | 175 | 0.9 | 0.9 | 0.00 | 0.01 | 0.01 | 71 | 1013.3 |
| 20260906000923 | 80 | 161 | 0.0 | 0.0 | 0.00 | 0.01 | 0.01 | 70 | 1013.3 |
| 20260906000418 | 80 | 153 | 0.0 | 0.0 | 0.00 | 0.01 | 0.01 | 72 | 1013.3 |
| 20260905235913 | 79 | 158 | 0.0 | 0.0 | 0.00 | 0.01 | 0.01 | 71 | 1013.4 |
| 20260905235407 | 78 | 169 | 1.7 | 2.6 | 0.00 | 0.01 | 0.01 | 72 | 1013.4 |
| 20260905234903 | 78 | 172 | 1.7 | 2.6 | 0.00 | 0.01 | 0.01 | 74 | 1013.3 |
| 20260905234357 | 78 | 156 | 0.0 | 0.0 | 0.00 | 0.01 | 0.01 | 77 | 1013.5 |
| 20260905233852 | 78 | 189 | 0.0 | 0.0 | 0.00 | 0.01 | 0.01 | 77 | 1013.5 |
| 20260905233347 | 78 | 186 | 0.9 | 1.7 | 0.00 | 0.01 | 0.01 | 77 | 1013.5 |
| 20260905232846 | 78 | 239 | 1.7 | 1.7 | 0.00 | 0.01 | 0.01 | 73 | 1013.5 |
| 20260905232343 | 78 | 182 | 1.7 | 1.7 | 0.00 | 0.01 | 0.01 | 73 | 1013.7 |
| 20260905231838 | 78 | 197 | 1.7 | 1.7 | 0.00 | 0.01 | 0.01 | 73 | 1014.1 |
| 20260905231338 | 78 | 176 | 0.0 | 0.0 | 0.00 | 0.01 | 0.01 | 74 | 1014.1 |
| 20260905230835 | 78 | 205 | 0.9 | 1.7 | 0.00 | 0.01 | 0.01 | 71 | 1014.4 |
| 20260905230333 | 78 | 172 | 0.0 | 0.0 | 0.00 | 0.01 | 0.01 | 72 | 1014.6 |
| 20260905225832 | 79 | 175 | 0.9 | 2.6 | 0.00 | 0.01 | 0.01 | 71 | 1015.2 |
| 20260905225327 | 79 | 229 | 1.7 | 1.7 | 0.00 | 0.01 | 0.01 | 70 | 1015.2 |
| 20260905224827 | 79 | 216 | 1.7 | 2.6 | 0.00 | 0.01 | 0.01 | 68 | 1015.3 |
| 20260905224323 | 78 | 195 | 2.6 | 7.0 | 0.00 | 0.01 | 0.01 | 70 | 1015.6 |
| 20260905223818 | 79 | 192 | 3.5 | 6.1 | 0.00 | 0.01 | 0.01 | 75 | 1015.1 |
| 20260905223316 | 79 | 129 | 0.0 | 2.6 | 0.00 | 0.01 | 0.01 | 73 | 1014.5 |
| 20260905222811 | 80 | 96 | 0.9 | 5.2 | 0.00 | 0.01 | 0.01 | 70 | 1014.2 |
| 20260905222309 | 80 | 21 | 1.7 | 3.5 | 0.00 | 0.01 | 0.01 | 70 | 1014.1 |
| 20260905221806 | 81 | 283 | 2.6 | 3.5 | 0.00 | 0.01 | 0.01 | 65 | 1014.3 |
| 20260905221302 | 83 | 327 | 5.2 | 11.3 | 0.00 | 0.01 | 0.01 | 61 | 1014.6 |
| 20260905220758 | 82 | 1 | 3.5 | 11.3 | 0.00 | 0.01 | 0.01 | 59 | 1014.2 |
| 20260905220254 | 81 | 335 | 6.1 | 11.3 | 0.00 | 0.01 | 0.01 | 63 | 1014.4 |
| 20260905215753 | 81 | 320 | 4.3 | 7.0 | 0.00 | 0.01 | 0.01 | 64 | 1014.5 |
| 20260905215249 | 83 | 169 | 1.7 | 2.6 | 0.00 | 0.01 | 0.01 | 63 | 1014.0 |
| 20260905214744 | 85 | 221 | 3.5 | 6.1 | 0.00 | 0.01 | 0.01 | 61 | 1013.9 |
| 20260905214240 | 85 | 230 | 1.7 | 2.6 | 0.00 | 0.01 | 0.01 | 63 | 1013.5 |
| 20260905213735 | 84 | 161 | 0.0 | 0.0 | 0.00 | 0.01 | 0.01 | 63 | 1013.2 |
| 20260905213231 | 84 | 165 | 0.0 | 0.0 | 0.00 | 0.01 | 0.01 | 64 | 1013.2 |
| 20260905212726 | 84 | 157 | 0.0 | 0.0 | 0.00 | 0.01 | 0.01 | 64 | 1013.0 |
| 20260905212226 | 84 | 157 | 0.0 | 0.9 | 0.00 | 0.01 | 0.01 | 69 | 1013.0 |
| 20260905211725 | 84 | 155 | 0.9 | 1.7 | 0.00 | 0.01 | 0.01 | 66 | 1013.1 |
| 20260905211221 | 85 | 261 | 0.9 | 1.7 | 0.00 | 0.01 | 0.01 | 63 | 1013.1 |
| 20260905210718 | 84 | 246 | 2.6 | 2.6 | 0.07 | 0.01 | 0.01 | 64 | 1013.1 |
| 20260905210217 | 85 | 238 | 1.7 | 2.6 | 0.07 | 0.01 | 0.01 | 61 | 1013.2 |
| 20260905205716 | 86 | 325 | 1.7 | 3.5 | 0.00 | 0.00 | 0.00 | 60 | 1013.3 |
| 20260905205210 | 90 | 179 | 1.7 | 7.8 | 0.00 | 0.00 | 0.00 | 56 | 1013.1 |
| 20260905204711 | 93 | 161 | 3.5 | 7.8 | 0.00 | 0.00 | 0.00 | 46 | 1013.4 |
| 20260905204206 | 96 | 200 | 3.5 | 8.7 | 0.00 | 0.00 | 0.00 | 39 | 1013.4 |
| 20260905203706 | 97 | 161 | 5.2 | 8.7 | 0.00 | 0.00 | 0.00 | 36 | 1013.3 |
| 20260905203201 | 97 | 140 | 5.2 | 7.8 | 0.00 | 0.00 | 0.00 | 36 | 1013.1 |
| 20260905202657 | 97 | 173 | 3.5 | 7.0 | 0.00 | 0.00 | 0.00 | 36 | 1013.2 |
| 20260905202152 | 98 | 189 | 7.8 | 9.6 | 0.00 | 0.00 | 0.00 | 35 | 1013.1 |
| 20260905201648 | 98 | 151 | 6.1 | 7.8 | 0.00 | 0.00 | 0.00 | 35 | 1013.3 |
| 20260905201147 | 99 | 95 | 3.5 | 8.7 | 0.00 | 0.00 | 0.00 | 34 | 1013.3 |